Home   Weather   Cairns   Past weeks

Flag for Australia Past Weather in Cairns, Queensland, Australia — Yesterday and Last 2 Weeks

Now
64 °F

Partly sunny.


Feels Like: 64 °F
Forecast: 66 / 80 °F
Wind: 16 mph from Southeast

Location: Cairns Airport

Current Time: Apr 29, 2017 at 7:54:32 am

Latest Report: Apr 29, 2017 at 7:00 am


Visibility: N/A

Pressure: 29.98 "Hg

Humidity: 83%

Dew Point: 59 °F

Location of CairnsLocation

Past Weather in Cairns — Graph

°F

Cairns Temperature Yesterday

Maximum temperature yesterday: 82 °F (at 12:00 pm)
Minimum temperature yesterday: 68 °F (at 11:30 pm)
Average temperature yesterday: 76 °F

High & Low Weather Summary for the Past Weeks

 TemperatureHumidityPressure
High86 °F (Apr 15, 12:30 pm)100% (Apr 26, 11:30 pm)30.07 "Hg (Apr 26, 11:30 pm)
Low64 °F (Apr 29, 3:00 am)37% (Apr 28, 10:00 am)29.83 "Hg (Apr 27, 3:00 pm)
Average76 °F77%29.96 "Hg
* Reported Apr 14 6:00 am — Apr 29 6:30 am, Cairns, Weather by CustomWeather, © 2017

Note: Actual official high and low records may vary slightly from our data, if they occured in-between our weather recording intervals... More about our weather records

Advertising

Cairns Weather History for the Previous 24 Hours

Scroll right to see more
 ConditionsComfort  
Time TempWeatherWind HumidityBarometerVisibility
6:30 am
Sat, Apr 29
64 °FPartly sunny.13 mph83%29.98 "HgN/A
6:00 am64 °FPassing clouds.12 mph83%29.98 "HgN/A
5:30 am64 °FPassing clouds.13 mph83%29.98 "HgN/A
5:00 am64 °FPassing clouds.12 mph83%29.98 "HgN/A
4:30 am64 °FPassing clouds.10 mph83%29.95 "HgN/A
4:00 am64 °FPassing clouds.12 mph83%29.95 "HgN/A
3:30 am64 °FPassing clouds.12 mph83%29.95 "HgN/A
3:00 am64 °FPassing clouds.13 mph83%29.98 "HgN/A
2:30 am66 °FPassing clouds.13 mph78%29.98 "HgN/A
2:00 am66 °FPassing clouds.14 mph83%29.98 "HgN/A
1:30 am66 °FPassing clouds.14 mph78%29.98 "HgN/A
1:00 am66 °FPassing clouds.15 mph78%29.98 "HgN/A
12:30 am66 °FPassing clouds.13 mph83%29.98 "HgN/A
12:00 am68 °FPassing clouds.10 mph73%30.01 "HgN/A
11:30 pm
Fri, Apr 28
68 °FPassing clouds.9 mph78%30.01 "HgN/A
11:00 pm72 °FPassing clouds.10 mph61%30.01 "HgN/A
10:30 pm73 °FPassing clouds.12 mph57%30.01 "HgN/A
10:00 pm72 °FPassing clouds.9 mph61%30.01 "HgN/A
9:30 pm72 °FPassing clouds.9 mph61%30.01 "HgN/A
9:00 pm72 °FPassing clouds.9 mph65%30.01 "HgN/A
8:30 pm72 °FPassing clouds.9 mph65%30.01 "HgN/A
8:00 pm72 °FPassing clouds.8 mph65%29.98 "HgN/A
7:30 pm72 °FPassing clouds.8 mph65%29.98 "HgN/A
7:00 pm72 °FPassing clouds.12 mph65%29.95 "HgN/A
6:30 pm73 °FPassing clouds.13 mph65%29.95 "HgN/A
5:30 pm75 °FSunny.16 mph61%29.92 "Hg10 mi
5:00 pm77 °FSunny.14 mph57%29.92 "Hg10 mi
4:30 pm77 °FSunny.17 mph54%29.89 "Hg10 mi
4:00 pm79 °FSunny.17 mph51%29.89 "Hg10 mi
3:30 pm79 °FSunny.17 mph48%29.89 "Hg10 mi
3:00 pm81 °FSunny.14 mph48%29.89 "Hg10 mi
2:30 pm81 °FSunny.17 mph51%29.89 "Hg10 mi
2:00 pm82 °FSunny.15 mph45%29.89 "Hg10 mi
1:30 pm82 °FSunny.18 mph48%29.89 "Hg10 mi
1:00 pm82 °FScattered clouds.16 mph48%29.92 "HgN/A
12:30 pm82 °FScattered clouds.13 mph42%29.92 "HgN/A
12:00 pm82 °FScattered clouds.12 mph40%29.95 "HgN/A
11:30 am81 °FScattered clouds.15 mph37%29.95 "HgN/A
11:00 am81 °FScattered clouds.14 mph39%29.98 "HgN/A
10:00 am81 °FPassing clouds.15 mph37%30.01 "HgN/A
9:30 am79 °FPassing clouds.13 mph48%30.01 "HgN/A
9:00 am79 °FPassing clouds.12 mph45%29.98 "HgN/A
8:30 am77 °FPassing clouds.12 mph47%29.98 "HgN/A
8:00 am75 °FPassing clouds.9 mph57%29.98 "HgN/A
7:30 am75 °FPassing clouds.12 mph57%29.95 "HgN/A
7:00 am75 °FPassing clouds.10 mph54%29.95 "HgN/A
Weather by CustomWeather, © 2017

See weather overviewHow to use our weather pages